CAPE
24 25 28 32 30 44 28 27 12 8 13 17 19 10 3 1 1 1 1 0 1 0 0 0 0 0 2 6 1 0 0 0 2 3 4 7 6 0 0 0 0 0 0 1 3 0 0 0 0 0 0 0 0 0
21 20 28 28 42 42 31 16 14 4 11 15 18 12 7 2 1 1 0 0 0 0 1 0 0 0 0 5 1 0 0 0 4 2 0 0 0 0 0 0 0 0 0 0 0 0 0 0 0 0 0 0 0 0
18 12 27 32 41 43 31 9 13 9 3 14 20 16 9 2 2 3 0 0 1 1 0 0 0 0 0 0 0 0 0 0 2 0 0 0 0 0 0 0 0 0 0 0 0 0 0 0 0 0 0 0 0 0
15 13 29 39 41 36 32 8 11 8 5 13 22 17 5 1 1 1 0 0 0 1 1 1 0 0 0 0 0 0 0 0 0 0 0 0 0 0 0 0 0 0 0 0 0 0 0 0 0 0 0 0 0 0
33 25 24 43 43 39 33 21 7 6 3 21 17 10 5 3 3 0 0 0 0 9 4 0 0 0 0 0 0 1 0 0 0 1 0 1 0 0 0 0 0 0 0 0 0 0 0 0 0 0 0 0 0 0
24 39 15 38 49 53 36 14 4 3 4 15 19 8 3 2 2 3 1 0 0 0 9 0 0 0 0 0 0 0 0 0 0 2 1 0 0 0 0 0 0 0 0 0 0 0 0 0 0 0 0 0 0 0
40 42 51 52 56 54 26 4 0 2 19 32 11 4 2 1 2 3 3 0 0 0 1 0 0 0 0 1 0 0 0 0 0 0 0 0 0 0 0 0 0 0 0 0 0 0 0 0 0 0 0 0 0 0
39 50 42 40 58 28 5 1 0 8 34 6 5 2 0 0 1 5 0 1 1 2 0 0 0 0 0 5 3 0 0 0 0 0 0 0 0 0 0 0 0 0 0 0 0 0 0 0 0 0 0 0 0 0
36 45 48 42 27 8 1 0 11 17 4 4 4 2 1 0 4 1 0 0 0 0 3 0 0 0 0 0 0 0 0 0 0 0 0 0 0 0 0 0 0 0 0 0 0 0 0 0 0 0 0 0 0 0
12 26 42 16 8 1 0 4 13 28 0 1 0 1 3 1 0 0 0 2 0 0 0 0 0 1 0 0 0 0 0 0 0 0 0 0 0 0 0 0 0 0 0 0 0 0 0 0 0 0 0 0 0 0
2 3 4 2 3 0 1 17 10 26 0 0 4 4 1 0 0 1 2 1 0 0 0 0 0 0 0 0 0 0 0 0 0 0 0 0 0 0 0 0 0 0 0 0 0 0 0 0 0 0 0 0 0 0
0 0 0 1 0 3 11 6 6 12 0 0 1 2 0 0 0 0 1 0 0 0 0 0 0 0 0 0 0 0 0 0 0 0 0 0 0 0 0 0 0 0 0 0 0 0 0 0 0 0 0 0 0 0
0 0 0 0 0 2 3 5 15 16 1 3 2 1 1 0 0 0 0 1 2 0 0 0 0 0 0 0 0 0 0 0 0 0 0 0 0 0 0 0 0 0 0 0 0 0 0 0 0 0 0 0 0 0
0 0 0 0 0 2 10 2 18 0 0 0 0 0 0 0 0 0 0 0 0 0 0 0 0 0 0 0 0 0 0 0 0 0 0 0 0 0 0 0 0 0 0 0 0 0 0 0 0 0 0 0 0 0
0 0 0 0 0 2 5 4 4 1 0 0 0 0 0 0 0 0 0 0 0 0 0 0 0 0 0 0 0 0 0 0 0 0 0 0 0 0 0 0 0 0 0 0 0 0 0 0 0 0 0 0 0 0
0 0 0 0 0 0 2 0 0 1 0 0 0 0 0 0 0 0 0 0 0 0 0 0 0 0 0 0 0 0 0 0 0 0 0 0 0 0 0 0 0 0 0 0 0 0 0 0 0 0 0 0 0 0
0 0 0 0 0 0 2 0 0 0 0 0 0 0 0 0 0 0 1 0 0 0 0 0 0 0 0 0 0 0 0 0 0 0 0 0 0 0 0 0 0 0 0 0 0 0 0 0 0 0 0 0 0 0
0 0 0 0 0 0 1 0 0 0 0 0 0 0 0 0 0 0 0 0 0 0 0 0 0 0 0 0 0 0 0 0 0 0 0 0 0 0 0 0 0 0 0 0 0 0 0 0 0 0 0 0 0 0
0 0 0 0 1 1 1 0 0 0 0 0 0 0 0 0 0 0 0 0 0 0 0 0 0 0 0 0 0 0 0 0 0 0 0 0 0 0 0 0 0 0 0 0 0 0 0 0 0 0 0 0 0 0
0 0 0 0 0 0 0 0 0 0 0 0 0 0 0 0 0 0 0 0 0 0 0 0 0 0 0 0 0 0 0 0 0 0 0 0 0 0 0 0 0 0 0 0 0 0 0 0 0 0 0 0 0 0
0 0 0 0 0 0 0 0 0 0 0 0 0 0 0 0 0 0 0 0 0 0 0 0 0 0 0 0 0 0 0 0 0 0 0 0 0 0 0 0 0 0 0 0 0 0 0 0 0 0 0 0 0 0
0 0 0 0 0 0 0 0 0 0 0 0 0 0 0 0 0 0 0 0 0 0 0 0 0 0 0 0 0 0 0 0 0 0 0 0 0 0 0 0 0 0 0 0 0 0 0 0 0 0 0 0 0 0
0 0 0 0 0 0 0 0 0 0 0 0 0 0 0 0 0 0 0 1 0 1 0 0 0 0 0 0 0 0 0 0 0 0 0 0 0 0 0 0 0 0 0 0 0 0 0 0 0 0 0 0 0 0
0 0 0 0 0 0 0 0 0 0 0 0 0 0 0 0 0 0 0 0 0 0 0 0 0 0 0 0 0 0 0 0 0 0 0 0 0 0 0 0 0 0 0 0 0 0 0 0 0 0 0 0 0 0
0 0 0 0 0 0 0 0 0 0 0 0 0 0 0 0 0 0 0 0 0 0 0 0 0 0 0 0 0 0 0 0 0 0 0 0 0 0 0 0 0 0 0 0 0 0 0 0 0 0 0 0 0 0
0 0 0 0 0 0 0 0 0 0 0 0 0 0 0 0 0 0 0 0 0 0 0 0 0 0 0 0 0 0 0 0 0 0 0 0 0 0 0 0 0 0 0 0 0 0 0 0 0 0 0 0 0 0
0 0 0 0 0 0 0 0 0 0 0 0 0 0 0 0 0 0 0 0 0 0 0 0 0 0 0 0 0 0 0 0 0 0 0 0 0 0 0 0 0 0 0 0 0 0 0 0 0 0 0 0 0 0
0 0 0 0 0 0 0 0 0 0 0 0 0 0 0 0 0 0 0 0 0 0 0 0 0 0 0 0 0 0 0 0 0 0 0 0 0 0 0 0 0 0 0 0 0 0 0 0 0 0 0 0 0 0
0 0 0 0 0 0 0 0 0 0 0 0 0 0 0 0 0 0 0 0 0 0 0 0 0 0 0 0 0 0 0 0 0 0 0 0 0 0 0 0 0 0 0 0 0 0 0 0 0 0 0 0 0 0
0 0 0 0 0 0 0 0 0 0 0 0 0 0 0 0 0 0 0 0 0 0 0 0 0 0 0 0 0 0 0 0 0 0 0 0 0 0 0 0 0 0 0 0 0 0 0 0 0 0 0 0 0 0
0 0 0 0 0 0 0 0 0 0 0 0 0 0 0 0 0 0 0 0 0 0 0 0 0 0 0 0 0 0 0 0 0 0 0 0 0 0 0 0 0 0 0 0 0 0 0 0 0 0 0 0 0 0
0 0 0 0 0 0 0 0 0 0 0 0 0 0 0 0 0 0 0 0 0 0 0 0 0 0 0 0 0 0 0 0 0 0 0 0 0 0 0 0 0 0 0 0 0 0 0 0 0 0 0 0 0 0
0 0 0 0 0 0 0 0 0 0 0 0 0 0 0 0 0 0 0 0 0 0 0 0 0 0 0 0 0 0 0 0 0 0 0 0 0 0 0 0 0 0 0 0 0 0 0 0 0 0 0 0 0 0
CIN
-0 -0 -0 -1 -0 -0 -0 -0 -0 -0 -0 -0 -0 -0 -0 0 0 0 -7 0 -1 0 0 0 0 0 -5 -2 -0 0 0 0 0 0 -1 -1 -6 0 0 0 0 -1 0 -1 -4 -4 0 0 0 0 0 0 0 0
-1 -1 -0 -1 -0 -0 -0 -0 0 -0 -0 -1 -0 -0 -0 0 0 0 -7 0 0 -0 -4 0 0 0 0 -8 -1 0 0 0 -1 -1 0 -25 -5 0 0 0 0 0 0 0 0 0 0 0 0 0 0 0 0 0
-0 -2 -0 -0 -0 -0 -0 -0 -0 -0 -1 -2 -0 -0 -0 0 0 -1 0 0 0 0 0 0 0 0 0 0 0 -1 -0 0 -16 0 0 0 0 0 0 0 0 0 0 0 0 0 0 0 0 0 0 0 0 0
-0 -1 -0 -0 -0 -0 -0 -0 -0 -1 -0 -1 -1 -0 -0 0 0 -39 0 0 -1 -1 0 -0 0 0 0 0 0 0 0 0 0 0 0 -1 0 0 0 0 0 0 0 0 0 0 0 0 0 0 0 0 0 0
-0 -1 0 -0 -0 -0 -0 -0 -0 -1 -1 -0 -1 -0 -0 0 0 -9 0 0 0 -0 0 -0 0 0 0 0 0 0 0 0 0 -8 0 -2 0 0 0 0 0 0 0 0 0 0 0 0 0 0 0 0 0 0
-0 -0 -3 0 -0 -0 -0 -0 -0 -1 -0 -1 -0 -0 -0 0 0 -10 0 -7 0 0 -1 -0 0 0 0 0 0 0 0 0 0 -2 -2 0 0 0 0 0 0 0 0 0 0 0 0 0 0 0 0 0 0 0
0 -0 -0 -0 -0 -0 -0 -0 -0 -0 -1 -0 -0 -0 0 0 0 -6 -2 0 0 -0 -4 -1 -0 0 0 -0 -0 0 0 0 0 0 0 0 0 0 0 0 0 0 0 0 0 0 0 0 0 0 0 0 0 0
-0 0 -0 -0 -0 -0 -1 -0 -0 -1 -0 -2 -0 -0 0 0 0 -1 0 0 0 -0 0 -2 0 0 0 -0 -1 0 0 0 0 0 0 0 0 0 0 0 0 0 0 0 0 0 0 0 0 0 0 0 0 0
-0 0 -0 -0 -0 -1 -0 0 -1 -1 -0 -0 -0 0 0 0 -2 -3 0 0 0 0 -2 0 0 0 0 0 0 0 0 0 0 0 0 0 0 0 0 0 0 0 0 0 0 0 0 0 0 0 0 0 0 0
-2 -1 -0 -2 -9 -0 0 -0 -1 -0 0 0 0 0 -1 -8 0 0 0 -5 0 0 0 0 0 0 -1 0 0 0 0 0 0 0 0 0 0 0 0 0 0 0 0 0 0 0 0 0 0 0 0 0 0 0
-0 0 0 -0 -0 -0 -0 -1 -1 -0 0 0 0 -0 0 0 -1 -17 -11 -2 0 0 0 0 0 0 0 -5 0 0 0 0 0 0 0 0 0 0 0 0 0 0 0 0 0 0 0 0 0 0 0 0 0 0
0 0 0 -0 -0 -0 -0 -1 -0 -1 0 0 0 0 0 0 0 -0 0 0 0 -0 0 0 0 0 0 0 0 0 0 0 0 0 0 0 0 0 0 0 0 0 0 0 0 0 0 0 0 0 0 0 0 0
0 0 0 0 -0 -0 -0 -1 -1 -0 0 0 0 0 0 0 0 0 0 0 0 0 0 0 0 0 0 0 0 0 0 0 0 0 0 0 0 0 0 0 0 0 0 0 0 0 0 0 0 0 0 0 0 0
0 0 0 0 0 -0 -0 -2 -0 0 0 0 0 0 0 0 0 0 0 0 0 0 0 0 0 0 0 0 0 0 0 0 0 0 0 0 0 0 0 0 0 0 0 0 0 0 0 0 0 0 0 0 0 0
0 0 0 0 0 -0 -1 -1 0 0 0 0 0 0 0 0 0 0 0 0 0 0 0 0 0 0 0 0 0 0 0 0 0 0 0 0 0 0 0 0 0 0 0 0 0 0 0 0 0 0 0 0 0 0
0 0 0 0 0 -0 -0 -1 0 0 0 0 0 0 0 0 0 0 0 0 0 0 0 0 0 0 0 0 0 0 0 0 0 0 0 0 0 0 0 0 0 0 0 0 0 0 0 0 0 0 0 0 0 0
0 0 0 0 0 0 -0 0 0 0 0 0 0 0 0 0 0 0 0 0 0 0 0 0 0 0 0 0 0 0 0 0 0 0 0 0 0 0 0 0 0 0 0 0 0 0 0 0 0 0 0 0 0 0
0 0 0 0 0 -0 0 0 0 0 0 0 0 0 0 0 0 0 0 0 0 0 0 0 0 0 0 0 0 0 0 0 0 0 0 0 0 0 0 0 0 0 0 0 0 0 0 0 0 0 0 0 0 0
0 0 0 0 -0 0 0 0 0 0 0 0 0 0 0 0 0 0 0 0 0 0 0 0 0 0 0 0 0 0 0 0 0 0 0 0 0 0 0 0 0 0 0 0 0 0 0 0 0 0 0 0 0 0
0 0 0 0 -0 0 0 0 0 0 0 0 0 0 0 0 0 0 0 0 0 0 0 0 0 0 0 0 0 0 0 0 0 0 0 0 0 0 0 0 0 0 0 0 0 0 0 0 0 0 0 0 0 0
0 0 0 0 0 0 0 0 0 0 0 0 0 0 0 0 0 0 0 0 0 0 0 0 0 0 0 0 0 0 0 0 0 0 0 0 0 0 0 0 0 0 0 0 0 0 0 0 0 0 0 0 0 0
0 0 0 0 0 0 0 0 0 0 0 0 0 0 0 0 0 0 0 0 0 0 0 0 0 0 0 0 0 0 0 0 0 0 0 0 0 0 0 0 0 0 0 0 0 0 0 0 0 0 0 0 0 0
0 0 0 0 0 0 0 0 0 0 0 0 0 0 0 0 0 0 0 0 0 0 0 0 0 0 0 0 0 0 0 0 0 0 0 0 0 0 0 0 0 0 0 0 0 0 0 0 0 0 0 0 0 0
0 0 0 0 0 0 0 0 0 0 0 0 0 0 0 0 0 0 0 0 0 0 0 0 0 0 0 0 0 0 0 0 0 0 0 0 0 0 0 0 0 0 0 0 0 0 0 0 0 0 0 0 0 0
0 0 0 0 0 0 0 0 0 0 0 0 0 0 0 0 0 0 0 0 0 0 0 0 0 0 0 0 0 0 0 0 0 0 0 0 0 0 0 0 0 0 0 0 0 0 0 0 0 0 0 0 0 0
0 0 0 0 0 0 0 0 0 0 0 0 0 0 0 0 0 0 0 0 0 0 0 0 0 0 0 0 0 0 0 0 0 0 0 0 0 0 0 0 0 0 0 0 0 0 0 0 0 0 0 0 0 0
0 0 0 0 0 0 0 0 0 0 0 0 0 0 0 0 0 0 0 0 0 0 0 0 0 0 0 0 0 0 0 0 0 0 0 0 0 0 0 0 0 0 0 0 0 0 0 0 0 0 0 0 0 0
0 0 0 0 0 0 0 0 0 0 0 0 0 0 0 0 0 0 0 0 0 0 0 0 0 0 0 0 0 0 0 0 0 0 0 0 0 0 0 0 0 0 0 0 0 0 0 0 0 0 0 0 0 0
0 0 0 0 0 0 0 0 0 0 0 0 0 0 0 0 0 0 0 0 0 0 0 0 0 0 0 0 0 0 0 0 0 0 0 0 0 0 0 0 0 0 0 0 0 0 0 0 0 0 0 0 0 0
0 0 0 0 0 0 0 0 0 0 0 0 0 0 0 0 0 0 0 0 0 0 0 0 0 0 0 0 0 0 0 0 0 0 0 0 0 0 0 0 0 0 0 0 0 0 0 0 0 0 0 0 0 0
0 0 0 0 0 0 0 0 0 0 0 0 0 0 0 0 0 0 0 0 0 0 0 0 0 0 0 0 0 0 0 0 0 0 0 0 0 0 0 0 0 0 0 0 0 0 0 0 0 0 0 0 0 0
0 0 0 0 0 0 0 0 0 0 0 0 0 0 0 0 0 0 0 0 0 0 0 0 0 0 0 0 0 0 0 0 0 0 0 0 0 0 0 0 0 0 0 0 0 0 0 0 0 0 0 0 0 0
0 0 0 0 0 0 0 0 0 0 0 0 0 0 0 0 0 0 0 0 0 0 0 0 0 0 0 0 0 0 0 0 0 0 0 0 0 0 0 0 0 0 0 0 0 0 0 0 0 0 0 0 0 0
Wind_Speed
34 32 29 26 23 26 32 31 29 29 29 29 27 24 24 24 24 25 24 24 25 25 26 21 20 23 21 20 19 17 11 25 21 21 28 21 21 24 19 17 16 14 14 17 16 18 21 14 16 15 13 13 13 12
34 32 29 26 23 28 32 31 28 28 29 29 27 26 25 25 25 24 24 23 22 24 22 21 23 22 23 21 21 14 22 1 12 17 19 22 23 19 16 21 19 21 10 12 6 8 14 14 12 11 12 11 11 10
34 31 28 25 22 30 31 30 29 29 29 29 28 27 26 26 26 26 23 20 20 24 26 27 26 23 18 17 10 15 19 19 14 13 15 19 21 18 19 21 13 14 10 15 10 15 13 13 14 13 10 9 9 9
34 31 27 26 22 33 31 30 30 30 30 30 28 27 26 25 25 24 24 21 21 19 21 20 16 18 17 11 12 13 17 19 16 18 17 17 19 18 19 17 18 17 10 9 15 15 13 17 15 8 8 8 9 10
34 30 25 25 19 31 30 30 29 30 30 30 29 27 26 25 23 23 22 24 22 21 19 19 18 18 18 13 12 13 17 17 18 22 21 24 24 23 22 23 25 17 13 7 22 5 14 15 5 4 6 8 8 11
33 28 24 22 11 31 31 29 29 29 31 30 29 29 27 25 22 19 25 27 26 21 20 18 16 18 16 13 13 15 15 17 16 18 17 18 18 18 21 24 24 25 14 11 13 8 12 6 5 4 6 5 8 10
32 26 22 20 13 31 30 29 29 30 31 30 30 30 30 27 24 24 22 20 17 16 21 21 18 17 15 13 13 13 14 14 15 14 15 15 16 15 18 19 17 8 8 5 5 6 7 6 5 4 6 8 10 10
31 26 22 20 16 30 29 29 29 30 32 31 31 30 32 29 19 26 17 14 11 20 20 20 18 17 16 17 17 15 16 15 15 15 14 16 15 16 21 20 14 6 6 6 9 11 5 5 6 6 8 8 8 8
31 26 22 21 29 29 29 28 29 30 32 33 30 29 24 25 27 24 13 11 15 21 21 20 17 19 17 16 15 16 16 18 18 18 18 18 17 17 18 12 4 3 6 5 8 7 5 5 6 6 6 5 6 7
32 28 25 23 31 28 29 28 28 30 31 26 21 20 26 23 7 8 19 20 22 24 23 20 15 17 16 16 17 17 18 18 19 19 19 20 25 24 21 20 13 5 5 3 4 5 3 2 3 3 3 4 5 6
32 28 26 22 31 28 28 27 27 26 19 19 22 22 20 14 16 20 23 24 22 24 22 20 15 14 16 15 15 16 18 18 22 21 20 21 23 23 24 22 16 5 2 4 7 4 2 5 5 4 4 5 6 7
32 29 25 22 24 27 26 27 26 23 22 24 25 22 21 20 19 23 25 23 24 26 19 19 17 14 14 15 15 16 18 19 22 18 21 23 22 19 20 18 11 5 3 6 4 2 3 4 5 6 5 5 6 7
31 29 26 21 16 27 28 28 27 24 24 21 22 23 21 23 25 30 30 26 24 18 20 14 14 15 14 14 12 15 18 20 19 22 24 24 19 18 15 11 8 6 4 3 2 3 6 7 7 8 8 8 8 9
29 29 27 22 19 30 29 29 26 22 21 23 24 26 26 28 30 27 28 24 23 19 10 10 13 16 16 16 16 18 20 19 21 24 25 22 17 13 11 8 3 2 2 3 5 6 7 7 7 7 8 9 9 9
28 29 25 23 13 32 31 29 24 22 24 24 24 26 30 26 26 26 21 18 20 13 13 14 15 16 17 19 18 17 19 23 21 22 20 17 10 8 5 3 2 3 5 6 7 8 8 8 9 8 8 9 10 10
28 26 25 25 14 32 31 24 20 21 23 22 25 24 24 27 28 25 22 18 16 12 14 19 20 20 21 18 20 21 19 24 22 18 15 9 7 5 3 2 3 4 6 7 7 9 9 9 9 9 9 9 10 11
27 26 26 22 15 34 25 20 20 23 24 23 25 27 27 29 29 24 21 20 13 15 20 20 23 25 16 22 24 20 23 22 17 14 9 6 3 2 3 5 6 7 9 10 10 10 10 10 9 9 9 10 11 13
26 26 25 27 34 31 21 19 21 23 26 25 26 26 27 26 26 23 20 16 16 19 18 21 17 24 25 24 24 22 20 18 14 10 7 3 3 4 5 7 7 9 10 9 9 9 9 8 7 8 9 10 12 13
26 25 26 28 27 22 21 20 19 24 25 27 26 25 26 25 22 20 19 19 18 16 15 18 21 23 23 21 21 19 16 16 11 7 4 1 2 5 7 8 10 10 10 10 10 8 7 7 8 9 9 10 12 12
25 24 29 25 25 21 20 20 20 23 25 26 27 26 25 26 24 20 17 18 18 20 24 25 23 21 21 21 20 19 11 8 5 3 2 1 3 7 8 10 9 10 9 9 8 8 8 8 8 9 10 11 11 12
25 25 27 25 19 21 18 20 21 21 24 25 25 27 26 24 25 24 23 20 22 26 28 25 23 23 22 21 19 9 6 4 6 8 5 5 4 7 7 7 7 6 7 6 6 6 7 7 8 9 10 12 12 13
24 27 24 22 19 18 17 19 22 24 22 25 25 25 26 25 24 24 21 24 24 25 24 24 21 19 16 16 14 9 5 5 5 4 4 5 7 8 8 7 6 5 4 5 5 6 7 8 9 10 11 12 13 14
25 24 22 22 20 19 17 23 20 22 24 25 25 26 26 27 25 21 22 22 22 21 21 19 18 16 14 13 10 9 7 5 6 6 6 6 5 5 6 4 3 4 4 4 5 6 6 8 9 10 11 12 13 15
23 22 22 22 22 19 21 21 21 22 23 24 25 26 25 26 24 25 28 24 23 20 19 18 17 15 14 13 11 10 9 5 6 6 7 8 7 4 2 2 1 2 3 4 5 6 7 8 9 10 11 12 13 15
23 20 21 22 20 20 20 23 22 20 23 23 24 25 24 23 26 28 29 26 23 22 23 22 20 18 16 13 13 11 11 8 8 9 7 6 6 3 1 1 3 4 3 3 5 6 8 8 9 9 11 12 14 15
21 19 19 19 19 20 20 20 21 21 22 23 22 24 23 24 27 29 28 26 24 22 22 22 22 18 16 14 11 9 10 9 9 8 7 7 6 4 4 2 2 6 7 6 5 6 7 7 8 9 11 13 14 16
20 16 15 15 16 18 19 20 20 19 20 21 22 23 23 25 26 24 22 22 22 21 21 20 18 13 11 10 7 6 5 5 7 6 4 4 5 6 5 4 5 7 6 6 6 5 5 7 8 10 12 14 15 16
14 12 13 13 14 17 19 20 20 19 18 20 22 22 23 23 23 21 21 21 21 21 18 14 10 7 6 6 5 5 5 4 4 3 1 3 6 7 7 7 6 5 6 6 6 6 7 7 9 10 12 14 16 18
12 11 11 11 13 15 17 19 19 18 19 18 20 20 21 19 19 19 19 20 19 14 13 10 7 8 6 5 5 4 4 5 6 6 6 7 7 8 7 6 6 6 6 7 7 8 8 9 10 12 13 15 16 18
9 9 10 11 11 12 14 17 17 17 17 16 15 15 17 17 17 17 17 15 13 13 13 12 11 10 8 8 6 4 6 7 7 6 6 7 6 3 4 4 5 5 6 7 7 8 10 11 12 14 16 18 20 21
9 8 9 10 11 13 13 14 15 16 16 16 16 15 15 15 15 15 15 15 14 12 11 10 9 9 9 9 6 5 7 10 9 7 4 1 1 2 3 4 5 5 6 7 8 9 10 12 14 16 18 20 22 23
7 6 6 8 10 12 13 14 15 15 15 15 15 14 13 14 15 15 15 13 10 9 8 7 7 7 8 8 8 7 4 4 4 2 1 1 2 3 3 4 5 6 8 9 10 11 13 14 16 18 20 22 23 24
7 6 8 9 10 10 11 12 15 15 14 13 15 14 13 14 13 13 13 12 11 9 8 7 6 6 6 6 5 4 3 3 2 2 2 3 3 4 5 6 7 8 9 11 12 13 14 16 17 19 21 22 24 24
Wind_Direction
356 356 357 356 358 298 296 291 284 281 285 289 285 277 266 261 264 241 239 241 243 248 253 260 265 248 263 245 250 253 258 210 244 245 234 251 257 249 264 275 279 272 281 278 283 282 272 300 289 289 300 310 323 334
356 356 356 357 359 296 295 292 282 279 283 285 281 274 269 261 261 244 239 243 252 248 257 267 265 267 272 262 235 276 243 154 126 251 254 245 243 252 262 257 262 252 286 295 309 316 297 296 302 311 313 329 336 12
355 355 355 356 357 295 293 290 282 277 279 283 278 272 267 262 255 239 239 246 250 250 257 256 254 261 281 286 4 277 257 251 273 276 256 248 249 259 258 258 282 288 296 288 300 290 302 297 300 314 344 357 17 34
356 356 357 358 359 298 292 289 283 279 280 281 279 271 267 257 257 237 238 244 246 254 256 263 284 269 266 311 313 299 265 245 254 243 245 260 264 271 273 281 281 286 292 301 296 292 302 279 293 327 5 20 37 39
355 355 356 358 359 293 290 286 283 279 279 281 278 268 257 256 253 236 243 242 245 248 264 265 273 272 265 292 310 318 268 257 255 241 245 247 250 248 254 263 260 285 288 166 188 124 289 296 332 24 41 56 60 71
354 353 353 356 326 289 290 284 283 279 278 276 275 260 258 253 255 239 239 240 241 255 258 265 277 271 271 284 299 283 258 255 261 255 261 269 276 270 257 243 250 226 286 294 299 338 306 19 51 26 56 48 59 65
353 353 355 358 298 292 289 286 282 279 278 276 269 255 246 248 246 235 241 250 245 252 256 263 273 274 270 274 276 273 266 268 266 269 271 280 277 284 278 263 290 322 326 341 2 23 0 30 30 47 68 67 65 55
357 359 360 2 315 295 290 285 281 279 278 276 266 251 240 243 245 234 256 261 244 243 256 263 274 272 267 264 260 271 263 276 281 285 296 289 292 285 259 266 284 339 34 3 317 311 21 42 67 69 79 78 59 47
4 5 5 7 336 297 291 286 282 283 281 275 257 242 241 236 231 236 248 267 257 248 254 258 267 264 268 273 274 271 274 265 277 279 282 285 283 279 277 310 360 37 330 335 327 355 30 66 83 81 79 60 56 41
12 15 16 13 320 297 294 286 285 287 284 265 232 229 230 232 191 223 249 254 251 252 253 263 272 270 269 269 271 267 273 273 277 280 287 282 273 275 284 285 296 307 318 358 339 336 41 53 93 87 70 48 51 47
17 18 20 20 318 296 293 289 288 290 277 238 226 232 233 193 236 240 243 245 251 253 254 257 267 275 274 274 276 279 273 280 276 281 284 286 285 285 283 283 290 275 291 320 320 353 47 109 117 101 72 58 53 46
18 19 18 17 340 295 292 289 285 274 251 243 239 237 224 233 243 239 241 246 249 250 254 251 252 269 280 277 284 281 280 280 278 289 285 285 290 292 292 291 291 276 281 306 338 68 66 76 86 85 75 59 39 36
18 17 15 15 334 300 292 289 282 272 261 237 229 225 238 235 236 237 234 242 242 249 246 252 251 258 269 272 294 288 283 285 290 283 280 283 297 298 306 313 305 295 297 319 32 79 91 88 79 85 77 61 59 49
15 14 13 16 19 302 294 289 281 265 240 232 226 229 235 233 239 243 241 243 248 250 244 237 248 265 270 274 286 286 286 291 288 281 282 293 298 305 312 323 353 356 48 94 100 100 99 96 80 69 67 67 58 44
12 10 16 21 329 301 296 289 273 250 234 237 238 238 236 242 246 246 247 246 246 234 218 235 254 272 267 272 278 285 284 280 286 291 294 301 312 322 332 355 45 82 98 103 105 104 98 92 86 74 61 54 47 39
9 13 21 11 328 303 298 286 266 243 240 248 245 241 244 242 242 243 243 245 240 213 223 245 255 264 268 275 274 275 279 278 292 301 306 321 320 324 345 30 71 94 104 105 103 100 94 91 86 75 58 42 32 28
11 17 8 7 359 309 299 281 261 247 243 250 246 245 247 243 241 243 245 243 226 214 235 257 257 260 275 273 272 276 278 286 292 301 318 328 351 38 67 86 94 101 104 103 101 94 90 84 75 62 42 26 25 21
12 6 8 10 3 349 310 287 265 254 247 249 249 248 248 249 246 247 252 238 236 237 253 261 273 264 264 267 274 279 282 285 293 301 308 337 52 75 94 102 103 108 106 101 97 94 90 79 59 44 45 40 31 23
3 7 12 11 13 7 310 287 277 258 254 249 254 253 250 252 257 255 251 239 256 253 261 266 271 268 267 273 278 285 283 278 280 291 295 332 80 100 102 105 108 107 102 99 96 86 71 54 56 51 43 31 24 22
7 12 11 16 18 12 327 290 287 266 257 255 251 254 255 252 254 254 249 247 251 252 258 262 267 273 276 279 287 284 282 268 244 230 249 237 124 117 117 119 115 108 97 87 74 71 61 46 37 36 31 28 23 17
10 13 13 20 30 18 353 302 281 278 268 258 257 254 255 254 247 245 247 253 255 255 257 266 271 272 276 283 288 289 275 234 238 255 200 162 159 136 129 124 117 106 101 90 77 56 43 39 34 27 23 18 17 17
8 8 14 22 28 24 357 327 286 278 273 264 258 257 251 249 248 248 254 255 257 260 264 266 270 275 280 284 284 285 271 259 258 238 203 165 155 149 145 137 126 111 88 76 68 60 44 33 29 26 24 19 19 15
6 12 15 21 24 20 359 327 298 281 267 267 264 253 253 252 254 258 255 259 261 270 269 267 272 278 282 287 287 281 274 247 238 207 192 178 165 151 142 139 130 116 89 37 38 42 31 24 22 19 17 16 12 8
9 11 14 17 19 15 354 327 311 286 274 269 264 257 258 257 260 254 251 260 266 273 269 268 268 271 275 275 277 275 268 244 197 198 192 170 164 167 157 136 53 15 32 53 26 14 10 10 11 10 9 7 4 1
1 8 11 10 18 10 1 329 311 297 275 273 267 261 262 264 256 256 257 260 269 271 269 269 267 269 265 266 264 265 268 239 201 188 218 199 166 165 181 336 353 356 16 19 356 360 358 1 3 3 1 358 356 355
355 5 8 10 13 10 2 343 316 300 287 273 272 272 268 265 259 259 261 265 265 270 272 269 264 260 265 268 258 249 245 233 208 203 226 241 241 208 199 215 280 316 323 335 348 348 352 355 356 356 354 355 356 355
348 358 8 16 15 11 4 345 329 318 294 279 276 275 271 261 260 267 274 273 267 276 279 277 270 260 250 245 250 247 230 216 212 207 221 255 278 285 284 284 298 314 330 340 348 358 2 359 357 357 356 355 354 353
355 6 2 11 10 8 4 348 331 322 309 293 282 273 270 269 268 279 278 280 274 274 273 274 272 253 239 240 229 203 194 183 176 181 207 304 307 310 319 328 341 351 351 359 5 6 7 6 3 360 356 354 352 352
2 9 10 5 4 7 4 354 342 333 317 302 288 279 276 281 283 281 279 278 276 273 265 257 253 239 232 233 234 227 219 225 212 219 237 254 273 297 320 344 359 3 6 8 9 8 8 6 3 0 358 356 354 353
1 10 2 3 5 5 0 356 354 358 337 324 307 294 287 283 284 288 282 278 273 267 260 251 243 235 227 224 225 247 276 274 273 265 257 261 273 299 330 348 359 6 10 12 12 12 10 5 1 355 353 351 350 349
4 1 357 0 1 356 357 3 9 11 356 332 319 304 290 286 284 292 287 285 282 277 259 247 243 247 242 243 245 247 265 283 286 285 291 244 301 331 344 353 0 7 9 8 3 358 355 351 349 348 346 346 346 346
358 353 359 357 351 345 355 358 358 359 357 339 326 318 303 292 283 279 284 285 280 275 272 262 251 255 264 271 280 285 282 286 297 310 341 336 332 338 348 356 1 359 355 352 349 348 346 346 344 343 341 341 341 342
352 352 347 346 337 345 352 359 357 1 1 352 324 317 312 298 289 284 282 285 277 277 277 282 290 295 299 303 307 313 323 332 352 19 28 22 13 2 354 351 350 350 348 346 345 343 342 341 341 339 340 340 341 342